Lid_Strength_Index
7 5 0 -1 -2 -2 -3 -3 -2 -2 -2 -2 -2 -2 -2 -2 -2 -2 -2 -2 -2 -2 -2 -2 -2 -2 -2 -2 -1 -1 -1 -1 -1 -1 -1 -1 -1 -1 -1 -1 -1 -0 -1
6 5 1 -1 -1 -2 -2 -2 -2 -3 -3 -3 -3 -2 -2 -2 -2 -2 -2 -2 -2 -2 -2 -2 -2 -2 -2 -2 -1 -1 -1 -1 -1 -1 -1 -1 -1 -1 -1 -1 -1 -1 -1
6 5 5 -0 -1 -1 -2 -1 -1 -1 -2 -1 -2 -2 -2 -2 -2 -2 -3 -2 -2 -2 -2 -2 -2 -2 -2 -2 -1 -1 -1 -1 -1 -1 -1 -0 0 -1 -1 -1 -1 -1 -1
7 6 5 0 -0 -0 -0 -0 -1 -0 -0 -1 -1 -1 -2 -2 -2 -2 -2 -2 -2 -2 -2 -2 -2 -2 -2 -2 -1 -1 -1 -1 -1 -1 -0 -0 0 -1 -1 -1 -1 -1 -1
8 7 4 1 1 0 0 0 0 1 1 1 0 0 -0 -0 -1 -1 -2 -2 -2 -2 -3 -2 -2 -2 -2 -2 -1 -1 -1 -0 -0 0 -0 1 1 -1 -1 -1 -1 -1 -1
9 8 5 2 1 1 1 1 1 1 1 1 1 1 1 1 0 0 -1 -2 -2 -2 -3 -3 -2 -2 -2 -2 -2 -2 -0 -0 0 1 -0 1 1 -1 -1 -1 -1 -1 -1
11 10 7 2 2 2 2 2 2 2 2 2 2 2 2 2 2 1 1 0 -1 -1 -2 -3 -2 -2 -2 -2 -2 -2 -1 0 2 2 1 1 1 -1 -2 -1 -1 -1 -1
11 10 9 5 3 3 3 3 3 3 3 3 3 3 3 3 2 2 2 1 0 -0 -1 -2 -2 -2 -2 -2 -2 -2 -1 0 2 3 2 0 0 -1 -1 -1 -1 -1 -1
12 11 10 8 5 5 5 5 5 4 4 5 5 4 5 5 4 4 3 2 1 0 -0 -1 -1 -1 -2 -1 -1 -1 -0 0 2 2 1 0 -0 -1 -1 -1 -1 -0 -0
13 12 11 10 8 7 8 6 6 6 6 6 7 6 6 6 5 5 5 3 2 1 0 0 -0 -0 -1 -0 -0 -0 1 0 3 3 2 0 -0 -1 -1 -1 -1 -0 0
12 12 12 11 10 8 8 8 7 7 7 8 8 8 8 8 8 8 6 4 3 2 1 1 1 1 1 1 1 1 1 2 3 3 3 0 -1 -1 -1 -1 -1 -0 -0
14 13 12 12 11 9 8 9 10 10 10 10 11 10 10 9 9 8 7 5 4 3 2 2 1 1 2 3 3 2 3 3 3 4 3 1 -1 -1 -1 -1 -1 -0 -0
15 13 12 12 11 11 10 10 11 10 11 11 11 11 11 11 11 9 8 7 6 5 5 5 5 5 4 4 3 3 3 4 4 4 4 3 -0 -1 -1 -1 -1 -0 0
14 13 12 12 11 11 11 11 11 11 12 12 11 11 11 12 12 11 9 7 6 6 5 5 5 5 5 4 2 3 4 4 4 5 4 5 3 -1 -1 -1 -1 -0 0
14 13 13 12 12 11 12 12 11 11 12 12 12 11 11 12 11 11 10 8 6 5 5 5 4 4 4 4 3 3 4 5 5 5 5 6 5 3 1 -1 -1 -0 0
14 14 13 12 12 12 12 12 12 12 12 12 12 12 11 11 11 11 10 9 7 6 5 5 5 4 4 4 4 3 4 5 5 6 6 7 7 5 3 -0 -0 0 0
14 14 13 12 13 13 13 13 12 12 11 12 12 11 11 10 10 10 10 9 8 6 5 5 5 5 4 4 4 3 4 5 5 6 6 8 9 8 5 3 1 -0 -0
15 14 14 12 13 13 13 13 13 12 12 12 12 11 10 10 10 10 9 9 8 7 6 6 6 6 5 5 6 5 4 5 5 7 6 9 9 9 8 5 5 0 0
15 15 15 14 14 14 14 13 13 13 13 13 13 12 11 10 10 9 9 9 8 8 7 6 6 6 6 6 6 5 4 5 5 8 7 8 9 9 8 7 7 3 0
16 15 15 15 15 14 14 14 14 13 14 13 13 12 11 10 10 9 9 9 8 8 8 7 7 6 6 6 6 6 6 5 5 8 8 8 8 9 9 8 8 8 2
16 16 16 16 16 15 16 16 15 16 14 14 13 12 12 11 10 10 10 9 9 9 9 8 7 7 7 6 7 7 5 5 7 8 8 9 9 8 9 9 8 8 8
17 16 16 16 16 16 16 16 15 16 15 15 14 13 12 12 11 10 11 10 10 9 9 9 8 7 7 6 8 8 8 6 6 7 8 8 9 9 9 9 8 8 8
17 17 16 16 16 17 16 16 16 16 15 15 14 14 13 12 11 11 11 11 11 10 10 9 8 8 8 7 6 8 11 11 10 7 9 8 9 9 9 9 8 9 9
17 17 17 16 17 17 17 18 18 17 17 16 16 14 14 13 12 11 11 11 11 11 11 10 8 8 8 8 7 6 7 9 10 10 8 9 8 9 9 9 10 9 9
17 18 17 17 18 18 18 18 18 18 17 16 16 15 14 14 12 12 12 12 12 12 11 10 9 8 7 7 8 8 8 8 9 10 10 9 9 8 9 9 9 9 9
18 18 18 18 19 18 18 18 19 18 18 17 16 16 16 15 13 13 13 13 12 12 12 10 9 8 8 7 7 8 8 9 10 11 11 10 9 9 8 9 9 9 9